Hourly Data Report for October 02, 2017

All times are specified in Local Standard Time (LST). Add 1 hour to adjust for Daylight Saving Time where and when it is observed.

LYTTON A
BRITISH COLUMBIA

50°13'28.000" N
121°34'55.000" W
224.90 m
1114738
71812
WLY

Related Data

No related data is available for this station

Download Data

Hourly Data (October 2017)
Hourly Data Report for October 2, 2017
Temp Definition
°C
Dew Point Temp Definition
°C
Rel Hum Definition
%
Wind Dir Definition
10's deg

Wind Spd Definition
km/h
Visibility Definition
km
Stn Press Definition
kPa
Hmdx Definition


Wind Chill Definition


Weather Definition


TIME
00:00 Legend Double Dagger 11.9 2.9 54 1 15 16.1 99.46     LegendNANA
01:00 Legend Double Dagger 11.8 2.6 53 1 17 16.1 99.47     LegendNANA
02:00 Legend Double Dagger 11.2 2.4 54 2 18 16.1 99.51     LegendNANA
03:00 Legend Double Dagger 11.3 1.9 52 1 22 16.1 99.54     LegendNANA
04:00 Legend Double Dagger 11.0 1.8 53 2 21 16.1 99.58     LegendNANA
05:00 Legend Double Dagger 10.5 1.8 55 1 17 16.1 99.63     LegendNANA
06:00 Legend Double Dagger 10.7 1.8 54 2 18 16.1 99.65     LegendNANA
07:00 Legend Double Dagger 11.1 0.9 49 2 17 16.1 99.72     LegendNANA
08:00 Legend Double Dagger 11.6 -0.3 44 1 24 16.1 99.76     LegendNANA
09:00 Legend Double Dagger 11.7 -1.1 41 1 21 16.1 99.83     LegendNANA
10:00 Legend Double Dagger 12.3 -1.7 38 36 22 16.1 99.84     LegendNANA
11:00 Legend Double Dagger 14.2 -2.2 32 36 18 16.1 99.86     LegendNANA
12:00 Legend Double Dagger 15.6 -2.1 29 36 21 16.1 99.85     LegendNANA
13:00 Legend Double Dagger 15.9 -2.5 28 36 18 16.1 99.85     LegendNANA
14:00 Legend Double Dagger 16.8 -2.3 27 35 22 16.1 99.83     LegendNANA
15:00 Legend Double Dagger 15.5 -2.8 28 35 21 16.1 99.81     LegendNANA
16:00 Legend Double Dagger 15.1 -2.8 29 35 17 16.1 99.83     LegendNANA
17:00 Legend Double Dagger 14.0 -2.8 31 36 13 16.1 99.88     LegendNANA
18:00 Legend Double Dagger 13.3 -3.0 32 1 13 16.1 99.98     LegendNANA
19:00 Legend Double Dagger 12.4 -3.0 34 1 21 16.1 100.07     LegendNANA
20:00 Legend Double Dagger 11.3 -2.6 38 4 9 16.1 100.13     LegendNANA
21:00 Legend Double Dagger 9.0 -1.7 47 LegendMM 4 16.1 100.16     LegendNANA
22:00 Legend Double Dagger 7.9 -1.1 53 LegendMM 4 16.1 100.19     LegendNANA
23:00 Legend Double Dagger 6.5 -1.0 59 1 9 16.1 100.20     LegendNANA

Notes on Data Quality.

Legend

  • E = Estimated
  • M = Missing
  • NA = Not Available
  • ‡ = Partner data that is not subject to review by the National Climate Archives
Date modified: